Location: Newark
(49.3000°N, 9.4667°E)
Time: 10:54:38
(UTC+00:00)

S-56A Canister/Altair - Pass Details

Date: 21 May 2019
Orbit: 633 x 2499 km, 38.9° (Epoch: 18 June)

Event Time Altitude Azimuth Distance (km) Brightness Sun altitude
Exits shadow 01:26:06 19° 194° (SSW) 2,473 9.5 -15.1°
Maximum altitude 01:30:08 30° 150° (SSE) 2,264 9.6 -14.7°
Drops below altitude 10° 01:38:35 10° 96° (E) 4,116 11.6 -14.0°
Sets 01:43:04 0° 87° (E) 5,426 12.4 -13.6°
